Time,TemperatureF,DewpointF,PressureIn,WindDirection,WindDirectionDegrees,WindSpeedMPH,WindSpeedGustMPH,Humidity,HourlyPrecipIn,Conditions,Clouds,dailyrainin,SolarRadiationWatts/m^2,SoftwareType,DateUTC
2013-01-13 00:02:00,70.0,70.0,-100.00,SSE,167,10.0,19.0,99,0.00,,,0.01,0.000000,,2013-01-13 06:02:00,
2013-01-13 00:33:00,69.0,69.0,-100.00,SSE,168,8.0,20.0,100,0.00,,,0.01,0.000000,,2013-01-13 06:33:00,
2013-01-13 00:42:00,69.0,69.0,-100.00,SSE,168,8.0,20.0,100,0.00,,,0.01,0.000000,,2013-01-13 06:42:00,
2013-01-13 00:52:00,69.0,69.0,-100.00,SSE,168,8.0,20.0,100,0.00,,,0.01,0.000000,,2013-01-13 06:52:00,
2013-01-13 01:02:00,69.0,69.0,-100.00,SSE,168,8.0,20.0,100,0.00,,,0.01,0.000000,,2013-01-13 07:02:00,
2013-01-13 01:33:00,70.0,69.0,-100.00,SSE,163,11.0,20.0,98,0.00,,,0.01,0.000000,,2013-01-13 07:33:00,
2013-01-13 01:42:00,70.0,69.0,-100.00,SSE,163,11.0,20.0,98,0.00,,,0.01,0.000000,,2013-01-13 07:42:00,
2013-01-13 01:52:00,70.0,69.0,-100.00,SSE,163,11.0,20.0,98,0.00,,,0.01,0.000000,,2013-01-13 07:52:00,
2013-01-13 02:02:00,70.0,69.0,-100.00,SSE,163,11.0,20.0,98,0.00,,,0.01,0.000000,,2013-01-13 08:02:00,
2013-01-13 02:32:00,70.0,69.0,-100.00,SSE,165,11.0,21.0,98,0.00,,,0.01,0.000000,,2013-01-13 08:32:00,
2013-01-13 02:42:00,70.0,69.0,-100.00,SSE,165,11.0,21.0,98,0.00,,,0.01,0.000000,,2013-01-13 08:42:00,
2013-01-13 02:53:00,70.0,69.0,-100.00,SSE,165,11.0,21.0,98,0.00,,,0.01,0.000000,,2013-01-13 08:53:00,
2013-01-13 03:02:00,70.0,69.0,-100.00,SSE,165,11.0,21.0,98,0.00,,,0.01,0.000000,,2013-01-13 09:02:00,
2013-01-13 03:32:00,70.0,69.0,-100.00,SSE,155,21.0,32.0,97,0.00,,,0.00,0.000000,,2013-01-13 09:32:00,
2013-01-13 03:42:00,70.0,69.0,-100.00,SSE,155,21.0,32.0,97,0.00,,,0.00,0.000000,,2013-01-13 09:42:00,
2013-01-13 03:52:00,70.0,69.0,-100.00,SSE,155,21.0,32.0,97,0.00,,,0.00,0.000000,,2013-01-13 09:52:00,
2013-01-13 04:02:00,70.0,69.0,-100.00,SSE,155,21.0,32.0,97,0.00,,,0.00,0.000000,,2013-01-13 10:02:00,
2013-01-13 04:32:00,70.0,69.0,-100.00,SSE,166,12.0,32.0,96,0.00,,,0.00,0.000000,,2013-01-13 10:32:00,
2013-01-13 04:42:00,70.0,69.0,-100.00,SSE,166,12.0,32.0,96,0.00,,,0.00,0.000000,,2013-01-13 10:42:00,
2013-01-13 04:53:00,70.0,69.0,-100.00,SSE,166,12.0,32.0,96,0.00,,,0.00,0.000000,,2013-01-13 10:53:00,
2013-01-13 05:02:00,70.0,69.0,-100.00,SSE,166,12.0,32.0,96,0.00,,,0.00,0.000000,,2013-01-13 11:02:00,
2013-01-13 05:33:00,70.0,68.0,-100.00,South,175,9.0,19.0,95,0.00,,,0.00,0.000000,,2013-01-13 11:33:00,
2013-01-13 05:42:00,70.0,68.0,-100.00,South,175,9.0,19.0,95,0.00,,,0.00,0.000000,,2013-01-13 11:42:00,
2013-01-13 05:53:00,70.0,68.0,-100.00,South,175,9.0,19.0,95,0.00,,,0.00,0.000000,,2013-01-13 11:53:00,
2013-01-13 06:03:00,70.0,68.0,-100.00,South,175,9.0,19.0,95,0.00,,,0.00,0.000000,,2013-01-13 12:03:00,
2013-01-13 06:33:00,70.0,68.0,-100.00,SSW,203,5.0,17.0,94,0.00,,,0.00,0.000000,,2013-01-13 12:33:00,
2013-01-13 06:42:00,70.0,68.0,-100.00,SSW,203,5.0,17.0,94,0.00,,,0.00,0.000000,,2013-01-13 12:42:00,
2013-01-13 06:53:00,70.0,68.0,-100.00,SSW,203,5.0,17.0,94,0.00,,,0.00,0.000000,,2013-01-13 12:53:00,
2013-01-13 07:02:00,70.0,68.0,-100.00,SSW,203,5.0,17.0,94,0.00,,,0.00,0.000000,,2013-01-13 13:02:00,
2013-01-13 07:33:00,69.0,68.0,-100.00,SSE,162,6.0,8.0,95,0.00,,,0.00,0.000000,,2013-01-13 13:33:00,
2013-01-13 07:43:00,69.0,68.0,-100.00,SSE,162,6.0,8.0,95,0.00,,,0.00,0.000000,,2013-01-13 13:43:00,
2013-01-13 07:53:00,69.0,68.0,-100.00,SSE,162,6.0,8.0,95,0.00,,,0.00,0.000000,,2013-01-13 13:53:00,
2013-01-13 08:03:00,69.0,68.0,-100.00,SSE,162,6.0,8.0,95,0.00,,,0.00,0.000000,,2013-01-13 14:03:00,
2013-01-13 08:33:00,70.0,68.0,-100.00,South,177,5.0,12.0,95,0.00,,,0.00,32.000000,,2013-01-13 14:33:00,
2013-01-13 08:43:00,70.0,68.0,-100.00,South,177,5.0,12.0,95,0.00,,,0.00,32.000000,,2013-01-13 14:43:00,
2013-01-13 08:53:00,70.0,68.0,-100.00,South,177,5.0,12.0,95,0.00,,,0.00,32.000000,,2013-01-13 14:53:00,
2013-01-13 09:03:00,70.0,68.0,-100.00,South,177,5.0,12.0,95,0.00,,,0.00,32.000000,,2013-01-13 15:03:00,
2013-01-13 09:33:00,72.0,70.0,-100.00,SSE,163,9.0,15.0,92,0.00,,,0.00,118.000000,,2013-01-13 15:33:00,
2013-01-13 09:43:00,72.0,70.0,-100.00,SSE,163,9.0,15.0,92,0.00,,,0.00,118.000000,,2013-01-13 15:43:00,
2013-01-13 09:53:00,72.0,70.0,-100.00,SSE,163,9.0,15.0,92,0.00,,,0.00,118.000000,,2013-01-13 15:53:00,
2013-01-13 10:03:00,72.0,70.0,-100.00,SSE,163,9.0,15.0,92,0.00,,,0.00,118.000000,,2013-01-13 16:03:00,
2013-01-13 10:33:00,73.0,70.0,-100.00,SSE,166,8.0,15.0,90,0.00,,,0.00,135.000000,,2013-01-13 16:33:00,
2013-01-13 10:43:00,73.0,70.0,-100.00,SSE,166,8.0,15.0,90,0.00,,,0.00,135.000000,,2013-01-13 16:43:00,
2013-01-13 10:53:00,73.0,70.0,-100.00,SSE,166,8.0,15.0,90,0.00,,,0.00,135.000000,,2013-01-13 16:53:00,
2013-01-13 11:03:00,73.0,70.0,-100.00,SSE,166,8.0,15.0,90,0.00,,,0.00,135.000000,,2013-01-13 17:03:00,
2013-01-13 11:33:00,71.0,71.0,-100.00,South,174,6.0,14.0,100,0.07,,,0.07,66.000000,,2013-01-13 17:33:00,
2013-01-13 11:43:00,71.0,71.0,-100.00,South,174,6.0,14.0,100,0.07,,,0.07,66.000000,,2013-01-13 17:43:00,
2013-01-13 11:53:00,71.0,71.0,-100.00,South,174,6.0,14.0,100,0.07,,,0.07,66.000000,,2013-01-13 17:53:00,
2013-01-13 12:03:00,71.0,71.0,-100.00,South,174,6.0,14.0,100,0.07,,,0.07,66.000000,,2013-01-13 18:03:00,
2013-01-13 12:33:00,72.0,72.0,-100.00,SSE,168,7.0,13.0,99,0.01,,,0.08,122.000000,,2013-01-13 18:33:00,
2013-01-13 12:43:00,72.0,72.0,-100.00,SSE,168,7.0,13.0,99,0.01,,,0.08,122.000000,,2013-01-13 18:43:00,
2013-01-13 12:53:00,72.0,72.0,-100.00,SSE,168,7.0,13.0,99,0.01,,,0.08,122.000000,,2013-01-13 18:53:00,
2013-01-13 13:02:00,72.0,72.0,-100.00,SSE,168,7.0,13.0,99,0.01,,,0.08,122.000000,,2013-01-13 19:02:00,
2013-01-13 13:33:00,73.0,72.0,-100.00,SSE,157,9.0,17.0,97,0.00,,,0.08,154.000000,,2013-01-13 19:33:00,
2013-01-13 13:43:00,73.0,72.0,-100.00,SSE,157,9.0,17.0,97,0.00,,,0.08,154.000000,,2013-01-13 19:43:00,
2013-01-13 13:53:00,73.0,72.0,-100.00,SSE,157,9.0,17.0,97,0.00,,,0.08,154.000000,,2013-01-13 19:53:00,
2013-01-13 14:03:00,73.0,72.0,-100.00,SSE,157,9.0,17.0,97,0.00,,,0.08,154.000000,,2013-01-13 20:03:00,
2013-01-13 14:33:00,71.0,69.0,-100.00,SW,225,8.0,27.0,94,0.00,,,0.08,33.000000,,2013-01-13 20:33:00,
2013-01-13 14:43:00,71.0,69.0,-100.00,SW,225,8.0,27.0,94,0.00,,,0.08,33.000000,,2013-01-13 20:43:00,
2013-01-13 14:53:00,71.0,69.0,-100.00,SW,225,8.0,27.0,94,0.00,,,0.08,33.000000,,2013-01-13 20:53:00,
2013-01-13 15:03:00,71.0,69.0,-100.00,SW,225,8.0,27.0,94,0.00,,,0.08,33.000000,,2013-01-13 21:03:00,
2013-01-13 15:33:00,55.0,55.0,-100.00,NW,322,11.0,24.0,100,0.56,,,0.64,13.000000,,2013-01-13 21:33:00,
2013-01-13 15:43:00,55.0,55.0,-100.00,NW,322,11.0,24.0,100,0.56,,,0.64,13.000000,,2013-01-13 21:43:00,
2013-01-13 15:53:00,55.0,55.0,-100.00,NW,322,11.0,24.0,100,0.56,,,0.64,13.000000,,2013-01-13 21:53:00,
2013-01-13 16:02:00,55.0,55.0,-100.00,NW,322,11.0,24.0,100,0.56,,,0.64,13.000000,,2013-01-13 22:02:00,
2013-01-13 17:33:00,49.0,49.0,-100.00,NNW,329,6.0,19.0,100,-99.99,,,0.75,8.000000,,2013-01-13 23:33:00,
2013-01-13 17:43:00,49.0,49.0,-100.00,NNW,329,6.0,19.0,100,-99.99,,,0.75,8.000000,,2013-01-13 23:43:00,
2013-01-13 17:53:00,49.0,49.0,-100.00,NNW,329,6.0,19.0,100,-99.99,,,0.75,8.000000,,2013-01-13 23:53:00,
2013-01-13 18:03:00,49.0,49.0,-100.00,NNW,329,6.0,19.0,100,-99.99,,,0.75,8.000000,,2013-01-14 00:03:00,
2013-01-13 18:33:00,48.0,48.0,-100.00,NNW,345,9.0,17.0,100,0.01,,,0.76,0.000000,,2013-01-14 00:33:00,
2013-01-13 18:43:00,48.0,48.0,-100.00,NNW,345,9.0,17.0,100,0.01,,,0.76,0.000000,,2013-01-14 00:43:00,
2013-01-13 18:53:00,48.0,48.0,-100.00,NNW,345,9.0,17.0,100,0.01,,,0.76,0.000000,,2013-01-14 00:53:00,
2013-01-13 19:03:00,48.0,48.0,-100.00,NNW,345,9.0,17.0,100,0.01,,,0.76,0.000000,,2013-01-14 01:03:00,
2013-01-13 19:33:00,48.0,48.0,-100.00,NNW,343,8.0,17.0,100,0.01,,,0.77,0.000000,,2013-01-14 01:33:00,
2013-01-13 19:42:00,48.0,48.0,-100.00,NNW,343,8.0,17.0,100,0.01,,,0.77,0.000000,,2013-01-14 01:42:00,
2013-01-13 19:53:00,48.0,48.0,-100.00,NNW,343,8.0,17.0,100,0.01,,,0.77,0.000000,,2013-01-14 01:53:00,
2013-01-13 20:03:00,48.0,48.0,-100.00,NNW,343,8.0,17.0,100,0.01,,,0.77,0.000000,,2013-01-14 02:03:00,
2013-01-13 20:33:00,47.0,47.0,-100.00,North,356,10.0,17.0,99,0.00,,,0.77,0.000000,,2013-01-14 02:33:00,
2013-01-13 20:43:00,47.0,47.0,-100.00,North,356,10.0,17.0,99,0.00,,,0.77,0.000000,,2013-01-14 02:43:00,
2013-01-13 20:53:00,47.0,47.0,-100.00,North,356,10.0,17.0,99,0.00,,,0.77,0.000000,,2013-01-14 02:53:00,
2013-01-13 21:02:00,47.0,47.0,-100.00,North,356,10.0,17.0,99,0.00,,,0.77,0.000000,,2013-01-14 03:02:00,
2013-01-13 21:33:00,45.0,45.0,-100.00,North,358,10.0,20.0,100,0.02,,,0.79,0.000000,,2013-01-14 03:33:00,
2013-01-13 21:43:00,45.0,45.0,-100.00,North,358,10.0,20.0,100,0.02,,,0.79,0.000000,,2013-01-14 03:43:00,
2013-01-13 21:53:00,45.0,45.0,-100.00,North,358,10.0,20.0,100,0.02,,,0.79,0.000000,,2013-01-14 03:53:00,
2013-01-13 22:02:00,45.0,45.0,-100.00,North,358,10.0,20.0,100,0.02,,,0.79,0.000000,,2013-01-14 04:02:00,
2013-01-13 22:32:00,44.0,44.0,-100.00,NNW,347,10.0,18.0,100,0.01,,,0.80,0.000000,,2013-01-14 04:32:00,
2013-01-13 22:42:00,44.0,44.0,-100.00,NNW,347,10.0,18.0,100,0.01,,,0.80,0.000000,,2013-01-14 04:42:00,
2013-01-13 22:53:00,44.0,44.0,-100.00,NNW,347,10.0,18.0,100,0.01,,,0.80,0.000000,,2013-01-14 04:53:00,
2013-01-13 23:03:00,44.0,44.0,-100.00,NNW,347,10.0,18.0,100,0.01,,,0.80,0.000000,,2013-01-14 05:03:00,
2013-01-13 23:33:00,44.0,44.0,-100.00,NNW,348,11.0,21.0,100,0.00,,,0.80,0.000000,,2013-01-14 05:33:00,
2013-01-13 23:43:00,44.0,44.0,-100.00,NNW,348,11.0,21.0,100,0.00,,,0.80,0.000000,,2013-01-14 05:43:00,
2013-01-13 23:53:00,44.0,44.0,-100.00,NNW,348,11.0,21.0,100,0.00,,,0.80,0.000000,,2013-01-14 05:53:00,